| time (UTC) | temp F | wind direction | speed knots | gust knots | rain 1hr in | rain 24hr in | rain mn in | humidity % | barometer mb |
| 20260504050021 | 50 | 271 | 7.8 | 9.6 | 0.00 | 0.00 | 0.00 | 45 | 1017.9 |
| 20260504044521 | 51 | 286 | 7.0 | 8.7 | 0.00 | 0.00 | 0.00 | 43 | 1017.9 |
| 20260504043021 | 51 | 286 | 7.8 | 9.6 | 0.00 | 0.00 | 0.00 | 42 | 1017.7 |
| 20260504041510 | 52 | 277 | 6.1 | 7.8 | 0.00 | 0.00 | 0.00 | 40 | 1017.5 |
| 20260504040007 | 52 | 283 | 6.1 | 8.7 | 0.00 | 0.00 | 0.00 | 39 | 1017.7 |
| 20260504034505 | 53 | 284 | 7.0 | 9.6 | 0.00 | 0.00 | 0.00 | 38 | 1017.8 |
| 20260504033007 | 54 | 281 | 7.8 | 11.3 | 0.00 | 0.00 | 0.00 | 37 | 1017.8 |
| 20260504031505 | 54 | 264 | 7.8 | 10.4 | 0.00 | 0.00 | 0.00 | 38 | 1017.8 |
| 20260504030004 | 53 | 272 | 8.7 | 11.3 | 0.00 | 0.00 | 0.00 | 38 | 1017.8 |
| 20260504024504 | 54 | 262 | 9.6 | 10.4 | 0.00 | 0.00 | 0.00 | 38 | 1017.8 |
| 20260504023003 | 54 | 277 | 7.8 | 9.6 | 0.00 | 0.00 | 0.00 | 39 | 1017.6 |
| 20260504021509 | 55 | 259 | 7.0 | 9.6 | 0.00 | 0.00 | 0.00 | 39 | 1017.5 |
| 20260504020002 | 56 | 251 | 6.1 | 9.6 | 0.00 | 0.00 | 0.00 | 38 | 1017.4 |
| 20260504014501 | 57 | 248 | 5.2 | 8.7 | 0.00 | 0.00 | 0.00 | 38 | 1017.2 |
| 20260504013100 | 57 | 261 | 5.2 | 7.8 | 0.00 | 0.00 | 0.00 | 38 | 1017.1 |
| 20260504011559 | 57 | 238 | 7.0 | 10.4 | 0.00 | 0.00 | 0.00 | 38 | 1016.9 |
| 20260504010059 | 58 | 267 | 5.2 | 9.6 | 0.00 | 0.00 | 0.00 | 38 | 1016.8 |
| 20260504004558 | 60 | 246 | 4.3 | 7.8 | 0.00 | 0.00 | 0.00 | 29 | 1016.7 |
| 20260504003100 | 61 | 234 | 3.5 | 6.1 | 0.00 | 0.00 | 0.00 | 27 | 1016.5 |
| 20260504001606 | 62 | 255 | 4.3 | 6.1 | 0.00 | 0.00 | 0.00 | 25 | 1016.4 |
| 20260504000059 | 63 | 266 | 6.1 | 7.8 | 0.00 | 0.00 | 0.00 | 25 | 1016.4 |
| 20260503234556 | 65 | 280 | 3.5 | 7.0 | 0.00 | 0.00 | 0.00 | 25 | 1016.4 |
| 20260503233101 | 66 | 284 | 2.6 | 8.7 | 0.00 | 0.00 | 0.00 | 24 | 1016.3 |
| 20260503231557 | 66 | 298 | 7.0 | 9.6 | 0.00 | 0.00 | 0.00 | 21 | 1016.3 |
| 20260503230055 | 67 | 291 | 7.0 | 11.3 | 0.00 | 0.00 | 0.00 | 21 | 1016.3 |
| 20260503224552 | 67 | 279 | 7.8 | 11.3 | 0.00 | 0.00 | 0.00 | 19 | 1016.3 |
| 20260503223052 | 68 | 286 | 7.0 | 11.3 | 0.00 | 0.00 | 0.00 | 19 | 1016.4 |
| 20260503221553 | 68 | 296 | 7.0 | 11.3 | 0.00 | 0.00 | 0.00 | 17 | 1016.5 |
| 20260503220050 | 69 | 205 | 1.7 | 5.2 | 0.00 | 0.00 | 0.00 | 25 | 1016.5 |
| 20260503214559 | 68 | 237 | 3.5 | 9.6 | 0.00 | 0.00 | 0.00 | 26 | 1016.5 |
| 20260503213048 | 67 | 184 | 5.2 | 13.0 | 0.00 | 0.00 | 0.00 | 27 | 1016.7 |
| 20260503211552 | 67 | 228 | 7.0 | 11.3 | 0.00 | 0.00 | 0.00 | 25 | 1016.8 |
| 20260503210045 | 68 | 240 | 8.7 | 14.8 | 0.00 | 0.00 | 0.00 | 27 | 1016.8 |
| 20260503204553 | 68 | 225 | 6.1 | 12.2 | 0.00 | 0.00 | 0.00 | 24 | 1016.9 |
| 20260503203048 | 67 | 251 | 5.2 | 10.4 | 0.00 | 0.00 | 0.00 | 21 | 1017.1 |
| 20260503201541 | 67 | 260 | 6.1 | 11.3 | 0.00 | 0.00 | 0.00 | 24 | 1017.5 |
| 20260503200040 | 66 | 200 | 7.0 | 13.0 | 0.00 | 0.00 | 0.00 | 26 | 1017.8 |
| 20260503194539 | 66 | 219 | 5.2 | 9.6 | 0.00 | 0.00 | 0.00 | 28 | 1018.0 |
| 20260503193036 | 66 | 130 | 4.3 | 12.2 | 0.00 | 0.00 | 0.00 | 27 | 1018.4 |
| 20260503191533 | 65 | 171 | 4.3 | 8.7 | 0.00 | 0.00 | 0.00 | 28 | 1018.6 |
| 20260503190045 | 65 | 213 | 6.1 | 10.4 | 0.00 | 0.00 | 0.00 | 25 | 1018.9 |
| 20260503184530 | 65 | 237 | 3.5 | 7.8 | 0.00 | 0.00 | 0.00 | 32 | 1019.1 |
| 20260503183026 | 63 | 200 | 5.2 | 13.0 | 0.00 | 0.00 | 0.00 | 27 | 1019.1 |
| 20260503181524 | 63 | 246 | 6.1 | 10.4 | 0.00 | 0.00 | 0.00 | 28 | 1019.2 |
| 20260503180035 | 63 | 217 | 4.3 | 10.4 | 0.00 | 0.00 | 0.00 | 25 | 1019.5 |
| 20260503174519 | 61 | 283 | 7.8 | 14.8 | 0.00 | 0.00 | 0.00 | 27 | 1019.5 |
| 20260503173019 | 61 | 312 | 7.8 | 13.0 | 0.00 | 0.00 | 0.00 | 28 | 1019.6 |
| 20260503171531 | 61 | 324 | 1.7 | 9.6 | 0.00 | 0.00 | 0.00 | 27 | 1019.9 |
| 20260503140108 | 54 | 355 | 0.9 | 4.3 | 0.00 | 0.00 | 0.00 | 47 | 1020.8 |
| 20260503081503 | 40 | 351 | 2.6 | 5.2 | 0.00 | 0.00 | 0.00 | 61 | 1017.6 |
| 20260503071606 | 42 | 304 | 2.6 | 4.3 | 0.00 | 0.00 | 0.00 | 58 | 1017.0 |
| 20260503054544 | 43 | 311 | 4.3 | 5.2 | 0.00 | 0.00 | 0.00 | 58 | 1017.0 |
| 20260503053039 | 43 | 305 | 3.5 | 4.3 | 0.00 | 0.00 | 0.00 | 57 | 1017.0 |